Theta_e
335 341 341 342 344 346 352 353 357 361 366 367 368 367 368 372 371 363 365 363 360 356 359 358 358 365 364 361 361 363 360 358 358
338 341 343 345 347 349 351 351 355 359 365 368 368 367 371 369 368 366 364 366 366 360 365 361 365 364 368 365 361 359 359 356 354
339 343 344 344 346 348 346 345 349 355 360 362 363 360 364 362 366 366 367 366 366 367 366 367 367 367 365 366 361 360 356 355 354
342 342 342 342 343 346 348 347 349 349 354 355 357 355 362 364 359 359 365 363 366 366 367 370 367 367 368 366 363 361 357 355 353
340 342 340 342 344 347 348 350 352 349 351 351 348 350 353 351 355 355 356 357 360 363 366 370 366 362 359 364 364 365 363 360 360
339 345 344 342 342 343 345 345 345 343 342 341 345 345 343 345 347 347 346 347 349 353 356 357 357 358 356 356 359 360 361 362 358
339 340 340 342 340 343 342 342 343 341 337 341 339 341 343 345 344 344 344 346 347 348 350 352 355 351 349 354 354 354 355 355 356
337 336 337 336 337 336 336 340 340 341 338 339 341 341 340 341 343 342 342 341 340 342 343 344 346 347 350 350 347 347 349 352 351
334 333 332 332 332 332 332 332 336 338 337 337 341 339 336 336 335 335 335 335 335 336 336 338 340 341 343 343 344 341 341 341 347
332 332 331 330 330 330 330 329 336 334 336 336 335 333 332 330 331 330 330 331 331 330 329 331 331 332 335 338 342 337 336 339 341
330 330 329 329 329 329 329 330 330 333 331 335 331 327 327 328 328 328 329 328 327 326 326 325 325 325 328 329 332 331 331 334 340
330 329 329 329 329 329 331 329 329 331 327 326 326 324 325 325 323 322 323 323 325 326 325 324 322 322 323 321 324 325 326 330 337
329 329 329 327 328 329 328 327 324 325 324 325 322 322 321 321 323 324 324 324 322 323 323 321 321 320 320 320 321 324 324 327 335
329 328 327 327 328 326 323 322 321 321 325 320 320 320 320 323 322 321 320 321 322 321 320 318 318 318 318 320 322 325 322 321 330
327 326 325 325 323 319 319 321 322 322 321 321 319 319 318 318 320 322 320 319 319 318 317 315 315 315 316 319 321 319 321 319 320
325 324 321 317 316 317 319 320 323 321 324 322 320 321 323 323 323 321 318 318 317 315 315 313 311 312 313 314 319 322 315 314 316
322 318 316 315 314 313 316 321 323 327 324 323 322 321 323 323 322 321 322 316 316 313 313 310 310 309 308 309 310 311 311 311 313
318 317 315 315 314 314 314 320 322 321 324 324 320 322 321 319 317 319 319 317 316 314 315 309 308 308 307 307 306 307 303 301 304
317 316 316 315 315 314 315 317 320 322 324 324 322 320 316 314 314 314 315 314 313 311 307 305 302 302 303 307 305 301 299 298 298
314 316 316 315 315 315 319 320 320 321 323 323 322 321 320 315 314 314 314 313 312 311 313 307 303 301 302 300 299 298 297 298 299
Wind_Speed
2 22 28 23 12 9 9 10 11 13 9 8 6 3 2 3 4 4 4 4 5 5 5 3 7 6 6 9 10 8 9 7 7
9 13 13 12 11 13 13 9 12 10 9 7 5 6 2 2 2 4 4 5 5 5 5 6 5 4 4 6 9 10 10 9 11
14 15 15 13 15 10 10 12 10 10 9 6 3 3 3 1 2 3 2 4 5 4 5 5 6 5 6 7 8 9 10 10 10
15 12 13 12 12 11 10 10 9 9 7 4 3 7 3 2 2 5 3 5 4 5 6 6 5 6 5 6 7 7 6 8 11
14 10 16 16 15 15 12 10 9 8 11 10 10 11 10 11 9 10 11 10 9 7 5 3 4 6 7 6 6 6 6 7 7
12 17 18 13 18 17 12 11 10 10 11 10 11 9 11 11 10 11 12 13 12 12 10 10 10 9 7 7 7 6 6 7 6
16 13 16 12 13 12 10 8 7 8 6 5 7 9 9 9 9 10 10 11 12 13 13 12 8 10 11 9 9 9 8 8 8
18 13 13 12 8 7 3 5 3 2 6 8 7 7 8 10 12 12 12 12 12 13 13 12 12 12 10 11 11 11 10 9 9
14 12 12 9 6 7 4 1 4 6 7 7 8 9 9 10 10 10 10 11 12 11 12 12 13 12 12 12 10 15 16 10 8
13 9 9 6 5 6 4 6 9 9 8 9 8 8 8 8 9 10 10 10 10 11 13 14 14 14 14 14 14 12 14 15 10
11 9 7 4 5 5 7 10 11 8 8 7 7 7 8 8 9 10 11 12 11 11 11 11 13 14 15 15 13 16 18 14 9
10 8 6 4 5 5 8 8 7 7 8 7 8 9 9 10 9 9 10 10 9 10 10 10 11 10 13 16 16 20 20 16 10
9 8 8 5 4 8 8 8 8 6 6 9 10 11 9 8 8 9 10 10 10 9 10 11 11 13 11 15 15 20 17 16 8
8 7 9 3 6 8 9 8 6 6 8 10 9 8 8 9 9 8 9 9 8 9 9 11 11 12 12 15 11 16 11 10 7
9 7 5 8 8 7 8 8 6 6 9 8 9 9 9 9 9 7 8 9 9 8 7 9 10 11 11 11 11 13 9 14 8
8 5 8 7 6 7 7 7 6 7 8 7 9 9 7 6 7 8 8 9 9 9 9 7 9 9 9 10 12 14 21 20 22
8 8 7 6 6 7 7 6 6 6 7 7 8 8 9 8 8 7 7 8 8 8 8 9 8 8 9 8 9 10 11 11 12
8 6 6 6 6 6 7 6 7 9 8 5 7 7 6 7 8 10 9 8 6 7 7 5 4 6 8 8 9 10 15 13 9
7 6 6 5 5 6 7 7 7 7 7 7 8 7 7 6 6 6 7 7 7 7 4 5 3 5 2 7 10 14 15 16 19
5 7 5 5 5 6 5 5 6 7 7 7 8 7 3 5 4 4 5 6 6 7 7 2 4 1 4 6 13 15 14 17 17
Wind_Direction
120 143 155 189 166 171 112 103 87 93 107 131 128 104 26 9 331 301 237 251 353 326 329 285 288 194 213 236 239 228 235 238 238
126 88 102 116 132 117 101 110 97 103 96 91 106 122 130 262 251 249 294 320 319 288 322 338 357 309 265 254 252 245 241 242 242
128 109 96 90 89 110 124 105 106 97 88 81 78 322 179 209 227 204 241 247 245 253 264 276 287 279 273 280 274 262 250 259 249
110 119 111 118 101 96 106 119 129 117 100 74 65 53 29 280 287 271 231 256 261 236 249 247 267 284 258 274 283 279 280 259 266
141 133 142 146 124 99 78 57 57 60 40 31 15 6 2 13 7 5 357 344 340 310 272 312 292 269 263 236 236 246 254 264 274
78 80 78 53 65 65 64 57 43 28 50 10 4 359 357 355 354 359 348 347 345 340 343 341 336 345 332 321 291 264 241 237 256
102 93 88 74 43 64 51 45 35 24 27 36 8 15 348 334 4 350 342 335 334 341 342 337 324 316 310 313 304 291 268 246 223
103 98 97 78 110 91 120 150 160 89 26 30 15 358 335 10 12 2 356 355 345 344 337 333 331 327 318 310 297 285 270 257 254
110 106 97 98 133 175 149 77 59 47 23 14 15 13 14 8 360 344 339 335 332 331 329 332 333 326 319 312 303 308 315 304 303
104 115 123 113 83 60 30 18 60 32 16 27 16 6 16 350 350 337 326 322 326 335 336 333 329 322 320 316 309 294 298 308 301
112 98 94 83 50 15 13 34 29 15 11 35 28 10 356 348 337 337 346 344 341 340 332 334 326 319 317 316 310 321 310 302 299
102 105 102 55 49 39 57 38 28 18 35 15 15 359 352 350 349 330 319 313 329 335 332 322 316 310 316 315 306 307 302 300 296
106 81 76 32 38 64 64 46 38 15 25 33 5 354 343 319 318 329 336 338 335 333 331 326 326 319 308 298 299 300 296 295 293
94 72 74 32 65 61 67 48 24 15 44 21 355 339 339 349 338 321 329 327 330 333 336 326 323 319 317 311 293 316 321 330 333
79 64 59 58 68 59 52 44 17 21 44 14 1 357 355 349 341 336 349 340 330 336 336 329 326 324 321 322 320 310 353 8 333
84 78 64 61 51 66 49 36 19 18 52 25 352 338 335 5 358 355 1 349 352 350 348 350 345 341 341 333 335 338 10 350 334
98 78 67 52 42 43 42 26 12 27 58 9 334 349 338 10 353 339 25 5 8 1 9 353 348 350 344 337 341 340 346 336 324
96 85 73 66 45 43 35 22 21 18 0 6 338 333 9 9 3 347 8 9 10 10 16 13 8 356 338 334 334 331 316 306 306
99 87 77 57 54 46 34 20 24 16 355 348 336 343 20 349 3 5 0 348 348 350 345 350 162 226 261 343 306 307 311 309 306
102 102 80 61 56 39 35 22 30 6 344 344 327 317 348 336 346 13 347 351 345 337 315 73 193 173 15 345 333 330 326 333 332